LiveATC.Net - Listen to live air traffic control over the Internet!


ICAO: KHWV  IATA: HWV   Airport: Brookhaven Airport
City: Shirley   State/Province: New York
Country: United States   Continent: North America
KHWV METAR Weather: KHWV 151856Z AUTO 29016G29KT 10SM OVC060 08/M03 A2980 RMK AO2 PK WND 30029/1851 SLP092 T00831033 TSNO
KHWV Flight Activity (FlightAware)
KHWV Airport Info   (iFlightPlanner)
KHWV VFR Sectional Chart   (iFlightPlanner) 
KHWV IFR Low Chart   (iFlightPlanner) 

KHWV CTAF
Feed Status: UP   Listeners: 1
Listen in your browser - HTML5 player (in browser, HTML5)
Click here to listen with your own player (launches your MP3 player)
Archive Access: KHWV CTAF
FacilityFrequency
Brookhaven CTAF122.800
Emergency/Guard121.500
Sponsored by Stephen Trapp and Long Island Soaring Association (LISA)

NOTICE

Unauthorized use prohibited. See LiveATC.net Terms of Service


Airport/ARTCC Code
Frequency Search
(e.g., 124.400, 128.75)
Site-wide search
 


Browse Feeds
Top 50 Feeds
Coverage Map
Bad Weather Areas

LiveATC FAQ
Offer LiveATC feed
Contact LiveATC.net
Press Inquiries

LiveATC on iPhone
LiveATC on Android

Windows Phone
Windows 8/10

LiveATC Mobile
(Mobile browser)

ATC Audio Archives
Interesting Recordings

LiveATC Forums


Home Page
About LiveATC.net
Make a Donation
Terms of Use
Privacy Policy

Canadian Air Freqs

AIRMETs/SIGMETs

FAA Airport Status
Nat'l Airspace Status
Arrival Demand Charts


Server Software By:
Icecast.org
Liquidsoap